Weather History for Falls City, NE

Change the Weather History Date:

Wednesday, January 30, 2013

  Actual Average Record
Temperature  
Mean Temperature 24 °F -  
Max Temperature 32 °F 38 °F 70 °F (2012)
Min Temperature 12 °F 17 °F -12 °F (1949)
Degree Days  
Heating Degree Days 42    
Moisture  
Dew Point 19 °F    
Average Humidity 80    
Maximum Humidity 93    
Minimum Humidity 58    
Precipitation  
Precipitation 0.00 in - - ()
Sea Level Pressure  
Sea Level Pressure 29.77 in    
Wind  
Wind Speed 17 mph (NW)    
Max Wind Speed 30 mph    
Max Gust Speed 41 mph    
Visibility 5 miles    
Events Fog , Snow    
Averages and records for this station are not official NWS values.
T = Trace of Precipitation, MM = Missing Value Source: NWS Daily Summary

Daily Weather History Graph

Daily Weather History Graph

Search for Another Location

Airport:

Trip Planner

Search our weather history database for the weather conditions in past years. The results will help you decide how hot, cold, wet, or windy it might be!

Date:

Astronomy

Jan. 30, 2013 Rise Set
Actual Time 7:32 AM CST 5:39 PM CST
Civil Twilight 7:03 AM CST 6:08 PM CST
Nautical Twilight 6:31 AM CST 6:40 PM CST
Astronomical Twilight 5:59 AM CST 7:12 PM CST
Moon 9:39 PM CST (1/30) 9:00 AM CST (1/30)
Length of Visible Light 11h 04m
Length of Day
10h 06m
Waning Gibbous, 87% of the Moon is Illuminated
Jan 30
Waning Gibbous
Feb 3
Last Quarter
Feb 10
New
Feb 17
First Quarter
Feb 25
Full

Hourly Weather History & Observations

Time (CST) Temp. Windchill Dew Point Humidity Pressure Visibility Wind Dir Wind Speed Gust Speed Precip Events Conditions
12:17 AM 32.0 °F 22.1 °F 30.2 °F 93% 29.58 in 2.5 mi North 13.8 mph 21.9 mph 0.00 in Snow Light Snow
12:36 AM 32.0 °F 21.2 °F 28.4 °F 87% 29.56 in 1.5 mi North 16.1 mph 21.9 mph 0.00 in Snow Light Snow
12:53 AM 32.0 °F 23.0 °F 30.0 °F 92% 29.59 in 1.2 mi North 11.5 mph 18.4 mph 0.00 in Snow Light Snow
1:06 AM 32.0 °F 22.5 °F 30.2 °F 93% 29.58 in 0.8 mi North 12.7 mph - 0.00 in Snow Light Snow
1:53 AM 30.9 °F 18.7 °F 28.9 °F 92% 29.61 in 0.5 mi North 19.6 mph 29.9 mph 0.00 in Fog , Snow Snow
2:53 AM 30.0 °F 14.9 °F 27.0 °F 88% 29.63 in 0.5 mi North 29.9 mph 41.4 mph 0.00 in Fog , Snow Snow
3:53 AM 28.0 °F 15.3 °F 26.1 °F 92% 29.65 in 0.8 mi NNW 18.4 mph 28.8 mph 0.00 in Snow Light Snow
4:09 AM 28.4 °F 16.6 °F 26.6 °F 93% 29.63 in 1.0 mi NNW 16.1 mph 25.3 mph 0.00 in Snow Light Snow
4:44 AM 26.6 °F 13.4 °F 24.8 °F 93% 29.63 in 0.8 mi NNW 18.4 mph 29.9 mph N/A Snow Light Snow
4:48 AM 26.6 °F 11.7 °F 24.8 °F 93% 29.63 in 0.8 mi NNW 24.2 mph 33.4 mph 0.00 in Snow Light Snow
4:53 AM 26.1 °F 12.7 °F 24.1 °F 92% 29.66 in 0.8 mi NNW 18.4 mph 33.4 mph 0.00 in Snow Light Snow
5:06 AM 26.6 °F 12.4 °F 23.0 °F 86% 29.64 in 1.0 mi NNW 21.9 mph 35.7 mph 0.00 in Snow Light Snow
5:14 AM 26.6 °F 12.0 °F 23.0 °F 86% 29.64 in 1.0 mi NW 23.0 mph 35.7 mph 0.00 in Snow Light Snow
5:31 AM 24.8 °F 10.3 °F 21.2 °F 86% 29.65 in 1.0 mi NNW 20.7 mph 36.8 mph 0.00 in Snow Light Snow
5:53 AM 25.0 °F 10.9 °F 21.9 °F 88% 29.70 in 1.5 mi NNW 19.6 mph 32.2 mph 0.00 in Snow Light Snow
6:36 AM 24.8 °F 10.3 °F 21.2 °F 86% 29.70 in 1.5 mi NNW 20.7 mph 29.9 mph 0.00 in Snow Light Snow
6:53 AM 24.1 °F 10.1 °F 21.0 °F 88% 29.73 in 1.5 mi NNW 18.4 mph 28.8 mph 0.00 in Snow Light Snow
7:42 AM 24.8 °F 10.7 °F 21.2 °F 86% 29.74 in 0.8 mi NW 19.6 mph 26.5 mph 0.00 in Snow Light Snow
7:49 AM 24.8 °F 12.4 °F 21.2 °F 86% 29.74 in 0.5 mi NW 15.0 mph 26.5 mph 0.00 in Fog , Snow Snow
7:53 AM 24.1 °F 11.5 °F 21.0 °F 88% 29.78 in 0.5 mi NW 15.0 mph 25.3 mph 0.00 in Fog , Snow Snow
8:01 AM 24.8 °F 12.4 °F 21.2 °F 86% 29.75 in 0.8 mi NW 15.0 mph 24.2 mph 0.00 in Snow Light Snow
8:08 AM 24.8 °F 12.4 °F 21.2 °F 86% 29.76 in 1.0 mi NW 15.0 mph - 0.00 in Snow Light Snow
8:16 AM 24.8 °F 12.4 °F 21.2 °F 86% 29.77 in 1.5 mi NW 15.0 mph 19.6 mph 0.00 in Snow Light Snow
8:53 AM 24.1 °F 10.1 °F 19.9 °F 84% 29.80 in 2.0 mi NW 18.4 mph 25.3 mph 0.00 in Snow Light Snow
9:03 AM 24.8 °F 11.9 °F 19.4 °F 80% 29.78 in 1.8 mi NW 16.1 mph 31.1 mph 0.00 in Snow Light Snow
9:32 AM 24.8 °F 10.7 °F 17.6 °F 74% 29.79 in 3.0 mi NW 19.6 mph 32.2 mph 0.00 in Snow Light Snow
9:53 AM 24.1 °F 9.4 °F 17.1 °F 75% 29.82 in 9.0 mi NW 20.7 mph 32.2 mph 0.00 in   Mostly Cloudy
10:08 AM 24.8 °F 10.0 °F 17.6 °F 74% 29.79 in 8.0 mi NW 21.9 mph 31.1 mph N/A   Scattered Clouds
10:34 AM 24.8 °F 10.3 °F 17.6 °F 74% 29.81 in 9.0 mi NW 20.7 mph 31.1 mph N/A   Mostly Cloudy
10:53 AM 25.0 °F 10.6 °F 16.0 °F 69% 29.85 in 9.0 mi NNW 20.7 mph 33.4 mph 0.00 in   Mostly Cloudy
11:03 AM 24.8 °F 11.9 °F 15.8 °F 69% 29.82 in 10.0 mi NNW 16.1 mph 31.1 mph N/A   Scattered Clouds
11:53 AM 25.0 °F 12.2 °F 16.0 °F 69% 29.86 in 10.0 mi NW 16.1 mph 29.9 mph N/A   Overcast
12:01 PM 24.8 °F 11.1 °F 15.8 °F 69% 29.83 in 8.0 mi NW 18.4 mph 27.6 mph 0.00 in Snow Light Snow
12:12 PM 24.8 °F 10.7 °F 14.0 °F 64% 29.83 in 10.0 mi NW 19.6 mph 32.2 mph 0.00 in   Mostly Cloudy
12:53 PM 24.1 °F 10.6 °F 15.1 °F 69% 29.87 in 9.0 mi NW 17.3 mph 27.6 mph 0.00 in Snow Light Snow
1:53 PM 25.0 °F 11.7 °F 14.0 °F 63% 29.86 in 9.0 mi NW 17.3 mph 27.6 mph 0.00 in Snow Light Snow
2:53 PM 25.0 °F 11.7 °F 12.0 °F 58% 29.88 in 10.0 mi NW 17.3 mph 33.4 mph 0.00 in   Mostly Cloudy
3:53 PM 24.1 °F 12.5 °F 14.0 °F 65% 29.90 in 10.0 mi WNW 12.7 mph 20.7 mph 0.00 in   Overcast
4:53 PM 23.0 °F 10.6 °F 12.9 °F 65% 29.92 in 10.0 mi NW 13.8 mph 25.3 mph 0.00 in   Overcast
5:53 PM 23.0 °F 11.7 °F 12.9 °F 65% 29.94 in 10.0 mi WNW 11.5 mph - N/A   Overcast
6:53 PM 21.9 °F 10.4 °F 12.9 °F 68% 29.95 in 10.0 mi West 11.5 mph - N/A   Overcast
7:53 PM 21.9 °F 11.0 °F 12.9 °F 68% 29.97 in 10.0 mi West 10.4 mph - N/A   Overcast
8:53 PM 18.0 °F 8.7 °F 10.0 °F 71% 29.97 in 10.0 mi SW 6.9 mph - N/A   Scattered Clouds
9:53 PM 16.0 °F 5.3 °F 10.0 °F 77% 29.96 in 10.0 mi SW 8.1 mph - N/A   Clear
10:53 PM 15.1 °F 9.4 °F 9.0 °F 77% 29.96 in 10.0 mi WSW 3.5 mph - N/A   Clear
11:53 PM 12.9 °F 6.9 °F 8.1 °F 81% 29.99 in 10.0 mi NW 3.5 mph - N/A   Unknown